Regional Weather Roundup
Issued by NWS

Home | Current Version | Previous Version | Graphics & Text | Print | Product List | Glossary On
Versions: 1 2 3 4 5 6 7 8 9 10 11 12 13 14 15 16 17 18 19 20 21 22 23 24 25 26 27 28 29 30 31 32 33 34 35 36 37 38 39 40 41 42 43 44 45 46 47 48 49 50
102
ASUS43 KMKX 211300
RWRWI

WISCONSIN REGIONAL WEATHER ROUNDUP
NATIONAL WEATHER SERVICE MILWAUKEE/SULLIVAN WI
800 AM CDT THU SEP 21 2017

NOTE: "FAIR" INDICATES FEW OR NO CLOUDS BELOW 12,000 FEET WITH NO
SIGNIFICANT WEATHER AND/OR OBSTRUCTIONS TO VISIBILITY.

WIZ001-002-006>008-014>016-023>028-211400-
NORTHWEST WISCONSIN

CITY           SKY/WX    TMP DP  RH WIND       PRES   REMARKS
SUPERIOR ARPT  SUNNY     39  39 100 CALM      30.03R
ASHLAND        SUNNY     46  45  96 CALM      30.06R
HAYWARD        SUNNY     47  44  90 CALM      30.04S
SIREN          FOG       40  40  97 CALM      30.03R VSB 3/4
CUMBERLAND     SUNNY     45  45 100 CALM      30.02F
RICE LAKE        N/A     46  45  99 CALM      30.04S FOG
CHETEK         SUNNY     46  46 100 CALM      30.03S
LADYSMITH      SUNNY     52  51  97 NE3       30.05S
EAU CLAIRE     NOT AVBL
MENOMONIE      SUNNY     51  50  96 CALM      30.03R
NEW RICHMOND   SUNNY     49  49 100 CALM      30.01S
OSCEOLA        SUNNY     48  48 100 E3        30.04S
$$

WIZ003>005-009-010-017-018-211400-
NORTH CENTRAL WISCONSIN

CITY           SKY/WX    TMP DP  RH WIND       PRES   REMARKS
MANITOWISH WTR SUNNY     44  44 100 CALM      30.06S
ARBOR VITAE      N/A     49  48  96 CALM      30.06S FOG
WOODRUFF         N/A     49  48  96 CALM      30.06S FOG
RHINELANDER    SUNNY     55  55 100 CALM      30.07S
EAGLE RIVER    MOSUNNY   48  48 100 CALM      30.07R FOG
LAND O LAKES   SUNNY     46  46 100 CALM      30.09S FOG
PHILLIPS       SUNNY     43  43 100 CALM      30.04S
TOMAHAWK       FOG       46  46  97 CALM      30.07R VSB 1/4
MEDFORD        SUNNY     52  52  99 E5        30.04R
MERRILL        SUNNY     52  52 100 CALM      30.06R
$$

WIZ029-030-035-036-043>047-211400-
CENTRAL WISCONSIN

CITY           SKY/WX    TMP DP  RH WIND       PRES   REMARKS
WAUSAU         MOSUNNY   60  58  92 N3        30.03S
MOSINEE        CLOUDY    61  61 100 NE5       30.05R
MARSHFIELD     PTSUNNY   60  56  86 NE9       30.02S
STEVENS POINT  CLOUDY    64  64 100 NE6       30.03R FOG
WAUPACA        CLOUDY    68  67  98 NE3       30.03R FOG
WAUTOMA        FOG       67  67 100 NE7       30.02R VSB 1/2
WISC RAPIDS    FOG       64  64 100 NE5       30.03S VSB 1/4
CAMP DOUGLAS   NOT AVBL
$$

WIZ011>013-019>022-031-037>040-048>050-211400-
NORTHEAST WISCONSIN

CITY           SKY/WX    TMP DP  RH WIND       PRES   REMARKS
ANTIGO         CLOUDY    59  57  94 CALM      30.07R
SHAWANO        CLOUDY    67  65  91 NE5       30.04R
OCONTO         CLOUDY    66  63  88 N3        30.02R
STURGEON BAY   CLOUDY    67  66  97 N3        30.03R
GREEN BAY      CLOUDY    68  67  96 NE12      30.02S
MANITOWOC      CLOUDY    69  67  93 CALM      30.02R
APPLETON       CLOUDY    66  66 100 NE7       30.01R FOG
CLINTONVILLE   NOT AVBL
OSHKOSH        CLOUDY    69  68  96 NE7       30.01R FOG
$$

WIZ032>034-041-042-053>061-211400-
SOUTHWEST WISCONSIN

CITY           SKY/WX    TMP DP  RH WIND       PRES   REMARKS
LA CROSSE      NOT AVBL
SPARTA         FOG       52  52 100 CALM      30.01F VSB<1/4
VIROQUA        CLOUDY    63  63 100 NE5       30.00S
BOSCOBEL       PTSUNNY   69  67  93 CALM      29.99R FOG
PRAIRIE DU CHI CLOUDY    67  65  94 CALM      29.97R FOG
PLATTEVILLE    CLOUDY    66  66 100 CALM      30.00R
$$

WIZ056-057-062-063-064-067-068-211400-
SOUTH CENTRAL WISCONSIN

CITY           SKY/WX    TMP DP  RH WIND       PRES   REMARKS
REEDSBURG      CLOUDY    66  66 100 CALM      30.00R
BARABOO/DELLS  CLOUDY    66  65  95 CALM      30.01R
LONE ROCK      PTSUNNY   69  69 100 CALM      29.98S FOG
MINERAL POINT  CLOUDY    70  70 100 CALM      30.00R
MADISON        FOG       70  70 100 N5        30.00R VSB 1/4
MIDDLETON      CLOUDY    70  70 100 CALM      30.01R VSB 1/4
WATERTOWN      CLOUDY    67  67 100 CALM      30.00R FOG
MONROE         CLOUDY    66  63  88 NE6       29.98R
JANESVILLE     PTSUNNY   70  70 100 CALM      29.98R
$$

WIZ051-052-058>065-066-070>072-211400-
SOUTHEAST WISCONSIN

CITY           SKY/WX    TMP DP  RH WIND       PRES   REMARKS
MILWAUKEE      CLOUDY    74  68  81 NE9       30.01R
WAUKESHA       MOSUNNY   66  64  94 CALM      30.01R
MILWAUKEE/TIMM SUNNY     70  64  83 CALM      30.02R
RACINE         CLOUDY    72  68  87 W5        30.01R
BURLINGTON     CLOUDY    67  67 100 CALM      30.00R FOG
KENOSHA        CLOUDY    73  67  81 W3        30.00R
FOND DU LAC    CLOUDY    70  66  87 NE5       30.01S
SHEBOYGAN      CLOUDY    68  68 100 VRB3      30.02R
WEST BEND        N/A     66  66 100 CALM      30.01R
JUNEAU         CLOUDY    67  66  99 CALM      30.03R FOG
$$

LSZ147-162-211400-
LAKE SUPERIOR

STATION/POSITION TIME  TEMP    WIND        PRES    WAVE
                       AIR SEA DIR/SP/G            HT/PER
                 (UTC) (F)     (DEG/KT/KT) (MB)    (FT/S)
W MID LAKE BUOY  1150   56 54   40/  4/  4 1017.2R   1
DEVILS ISLAND    1200   58      90/  3/  3 1017.2R
PORT WING        1140          110/  4/  7 1016.6F
SAXON HARBOR     1230   49     190/  5/  8 1016.9R
$$

LMZ867-665-643>646-211400-
LAKE MICHIGAN

STATION/POSITION TIME  TEMP    WIND        PRES    WAVE
                       AIR SEA DIR/SP/G            HT/PER
                 (UTC) (F)     (DEG/KT/KT) (MB)    (FT/S)
S GREEN BAY BUOY 1230   67 66   30/ 10/ 12 1016.4R
N MID LAKE BUOY  1150   66 65  360/  8/ 10 1015.9R   3/ 6
NORTHPORT PIER   1240   67     340/  8/ 10 1016.3R
KEWAUNEE LAKESHO 1230   63        CALM     1015.6R
SHEBOYGAN LAKESH 1200   67      20/  3/  4 1015.5R
PORT WASHINGTON  1230   69     340/  4/  6 1016.6S
ATWATER BUOY     1109   71 67  210/  6/  6 1015.0R
MILWAUKEE LAKESH 1230   71      10/  9/ 10   N/A
S MID LAKE BUOY  1150   70 69  200/  8/ 10 1015.0R   1/ 3
KENOSHA   LAKESH 1200   70        CALM     1014.6
$$

TC  - TEMPERATURE IN CELSIUS
VSB - VISIBILITY IN STATUTE MILES
WCI - WIND CHILL INDEX
HX  - HEAT INDEX





USA.gov is the U.S. government's official web portal to all federal, state and local government web resources and services.